Regional Weather Roundup
Issued by NWS

Home | Current Version | Previous Version | Text Only | Print | Product List | Glossary Off
Versions: 1 2 3 4 5 6 7 8 9 10 11 12 13 14 15 16 17 18 19 20 21 22 23 24 25 26 27 28 29 30 31 32 33 34 35 36 37 38 39 40 41 42 43 44 45 46 47 48 49 50

000
ASUS45 KBOU 222107
RWRCO

WEATHER ROUNDUP FOR COLORADO
NATIONAL WEATHER SERVICE DENVER/BOULDER CO
200 PM MST SAT NOV 22 2014

NOTE: "FAIR" INDICATES FEW OR NO CLOUDS BELOW 12000 FEET WITH NO
SIGNIFICANT WEATHER AND/OR OBSTRUCTIONS TO VISIBILITY.

COZ001>005-013-030-031-222200-
...NORTHWEST COLORADO...

CITY           SKY/WX    TMP DP  RH WIND       PRES   REMARKS
CRAIG          CLOUDY    45  21  38 SW14      29.81F
HAYDEN         CLOUDY    43  19  39 W18G32    29.82S
MEEKER         CLOUDY    46  21  37 SW15      29.85S
MOUNT WERNER   NOT AVBL
STEAMBOAT SPGS CLOUDY    42  20  40 CALM      29.81F
WALDEN         CLOUDY    37  19  48 SW26G39   29.81R
$$

COZ006>008-011-222200-
...WEST CENTRAL VALLEYS...

CITY           SKY/WX    TMP DP  RH WIND       PRES   REMARKS
GRAND JUNCTION CLOUDY    40  21  46 NW12      29.88F
MONTROSE       PTSUNNY   52  21  29 N5        29.89F
EAGLE          PTSUNNY   46  21  36 SW13G18   29.86F
RIFLE          CLOUDY    44  21  40 CALM      29.87F
DELTA          PTSUNNY   55  20  25 NE3       29.88F
NUCLA          PTSUNNY   52  21  30 SW14G23   29.95F
$$

COZ017>023-064>068-222200-
...SOUTHWEST COLORADO...

CITY           SKY/WX    TMP DP  RH WIND       PRES   REMARKS
DURANGO        PTSUNNY   49  20  31 W15       29.96F
CORTEZ         SUNNY     51  21  30 S12       29.97F
PAGOSA SPRINGS PTSUNNY   46  16  30 W12       29.98F
TELLURIDE      MOSUNNY   43   9  24 CALM      29.98F
WOLF CREEK PAS MOSUNNY   27  14  59 SW21G35   30.02F WCI  13
$$

COZ009-010-012-014-032>034-037-058>063-222200-
...CENTRAL COLORADO...

CITY           SKY/WX    TMP DP  RH WIND       PRES   REMARKS
ASPEN          CLOUDY    43  18  36 N7        29.86F
BUENA VISTA    MOSUNNY   46   9  22 W22G41    29.81S
COPPER MTN     PTSUNNY   32  12  43 W15G24    29.93S WCI  22
BERTHOUD PASS  FAIR      19  16  86 NW39G45   29.86F WCI  -2
COTTONWOOD PAS MOSUNNY   41   3  20 W30G41    29.83F
GUNNISON       PTSUNNY   30  16  55 CALM      29.98F
KREMMLING      PTSUNNY   43  14  31 S6G18     29.83F
LEADVILLE      PTSUNNY   39  10  30 W8G18     29.87F
MONARCH PASS   MOSUNNY   23  12  63 W44G51    30.04S WCI   3
SALIDA         MOSUNNY   51   9  18 W15G33    29.88S
SUNLIGHT       CLOUDY    32  21  64 CALM      29.94F
WILKERSON PASS MOSUNNY   37   7  28 SW17G28   29.84F
$$

COZ069>075-222200-
...SAN LUIS VALLEY/SANGRE DE CRISTO MOUNTAINS...

CITY           SKY/WX    TMP DP  RH WIND       PRES   REMARKS
ALAMOSA        SUNNY     46  15  28 E9        29.88F
LA VETA PASS   SUNNY     36  12  38 S25G45    29.81F
SAGUACHE       MOSUNNY   43  18  36 S10       29.91F
$$

COZ035-036-038>040-222200-
...NORTHERN COLORADO FRONT RANGE...

CITY           SKY/WX    TMP DP  RH WIND       PRES   REMARKS
DENVER INTL AP CLOUDY    60  17  18 N7        29.58F
DMNS CITY PARK   N/A     62  11  14 S21       29.56F
AURORA         PTSUNNY   58  16  19 SW10      29.59F
FRONT RANGE AP CLOUDY    61  21  21 SW5       29.60S
ERIE MUNI ARPT CLOUDY    59  15  18 E6        29.57F
BOULDER MUN AP CLOUDY    59  19  21 NE6       29.56F
CENTENNIAL     PTSUNNY   58  13  17 SW8       29.59F
BROOMFIELD     PTSUNNY   64  14  14 SW12G29   29.59F
FORT COLLINS   CLOUDY    46  27  46 N8        29.60F
LONGMONT       CLOUDY    53  26  35 N5        29.59R
$$

COZ041-046-047-076>085-087-088-222200-
...PIKES PEAK/PALMER DIVIDE AND SOUTHERN FOOTHILLS...

CITY           SKY/WX    TMP DP  RH WIND       PRES   REMARKS
COLO. SPRINGS  PTSUNNY   59   4  11 E8        29.65F
A. F. ACADEMY  PTSUNNY   56   8  14 W8        29.65F
ELLICOTT       NOT AVBL
FALCON         NOT AVBL
FORT CARSON    MOSUNNY   60  12  15 NW7       29.61F
LIMON          PTSUNNY   62   7  11 S12       29.60F
MONUMENT HILL  MOSUNNY   54   9  16 SW17      29.66F
TRINIDAD       SUNNY     59  22  24 E6        29.69F
$$

COZ042>045-048>051-090-091-222200-
...NORTHEAST COLORADO...

CITY           SKY/WX    TMP DP  RH WIND       PRES   REMARKS
GREELEY ARPT   CLOUDY    46  25  42 CALM      29.59F
AKRON          PTSUNNY   63   8  11 W5        29.58F
BURLINGTON     SUNNY     65  12  12 SW21      29.59F
WRAY           PTSUNNY   69   9   9 SW8       29.55F
STERLING       PTSUNNY   64  21  19 W8        29.57F
HOLYOKE        PTSUNNY   68  10  10 SW6       29.56F
FORT MORGAN    PTSUNNY   60  16  18 W9        29.59S
$$

COZ086-089-092>099-222200-
...SOUTHEAST COLORADO...

CITY           SKY/WX    TMP DP  RH WIND       PRES   REMARKS
PUEBLO         SUNNY     65  17  15 SW12      29.61F
LA JUNTA       SUNNY     67  23  19 SW16      29.60F
LAMAR          SUNNY     67  19  16 SW13      29.60F
SPRINGFIELD      N/A     68  12  11 W13G23    29.63F
$$



USA.gov is the U.S. government's official web portal to all federal, state and local government web resources and services.